Regional Weather Roundup
Issued by NWS

Home | Current Version | Previous Version | Graphics & Text | Print | Product List | Glossary On
Versions: 1 2 3 4 5 6 7 8 9 10 11 12 13 14 15 16 17 18 19 20 21 22 23 24 25 26 27 28 29 30 31 32 33 34 35 36 37 38 39 40 41 42 43 44 45 46 47 48 49 50
000
ASUS43 KTOP 170559
RWRKS

WEATHER ROUNDUP FOR KANSAS
NATIONAL WEATHER SERVICE GOODLAND KS
1200 AM CST TUE JAN 17 2017

NOTE:  "FAIR" INDICATES FEW OR NO CLOUDS BELOW 12,000 FEET WITH NO
SIGNIFICANT WEATHER AND/OR OBSTRUCTIONS TO VISIBILITY.

KSZ001>006-013>018-027>032-041>047-170700-
NORTHWEST KANSAS

CITY           SKY/WX    TMP DP  RH WIND       PRES   REMARKS
GOODLAND       CLOUDY    29  25  85 W9        30.08S
6HR MIN TEMP:  29; 6HR MAX TEMP:  33;

HAYS           PTCLDY    33  31  92 NW9       30.06R
HILL CITY      CLOUDY    33  30  88 NW10      30.07R WCI  25
6HR MIN TEMP:  33; 6HR MAX TEMP:  35;

RUSSELL        CLOUDY    33  31  92 NW8       30.04S
6HR MIN TEMP:  32; 6HR MAX TEMP:  33;

$$

KSZ061>065-074>080-084>089-170700-
SOUTHWEST KANSAS

CITY           SKY/WX    TMP DP  RH WIND       PRES   REMARKS
DODGE CITY     PTCLDY    33  31  92 NW10      30.08R WCI  25
6HR MIN TEMP:  33; 6HR MAX TEMP:  33;

ELKHART          N/A     32  23  69 NW12        N/A  WCI  23
GARDEN CITY    CLOUDY    34  30  85 NW9       30.09R
6HR MIN TEMP:  33; 6HR MAX TEMP:  34;

GREAT BEND     CLOUDY    33  31  92 NW12      30.06R WCI  24
LIBERAL        CLOUDY    36  30  80 NW10      30.12S WCI  28
$$

KSZ066>073-081>083-090>101-170700-
SOUTHEAST KANSAS

CITY           SKY/WX    TMP DP  RH WIND       PRES   REMARKS
CHANUTE        CLOUDY    38  34  85 W9        30.02R
6HR MIN TEMP:  38; 6HR MAX TEMP:  41;

HUTCHINSON     CLOUDY    35  33  92 NW7       30.04R
6HR MIN TEMP:  35; 6HR MAX TEMP:  35;

MEDICINE LODGE   N/A     36  32  85 NW8       30.09R
NEWTON         CLOUDY    33  32  96 NW10      30.03R WCI  25
PARSONS        CLOUDY    40  36  86 W10       30.04R WCI  33
6HR MIN TEMP:  40; 6HR MAX TEMP:  42;

WICHITA INTL   DRIZZLE   35  34  96 NW10      30.05R WCI  27
6HR MIN TEMP:  35; 6HR MAX TEMP:  37; 6HR PCP: TRACE;

WICHITA JABRA  CLOUDY    34  33  96 NW10      30.04R WCI  26
6HR MIN TEMP:  34; 6HR MAX TEMP:  37;

WICHITA MCCONL CLOUDY    36  32  87 NW8       30.04R
WINFIELD       CLOUDY    37  34  89 W9        30.06R
6HR MIN TEMP:  36; 6HR MAX TEMP:  39;

$$

KSZ007>012-019>026-033>040-048>060-102>105-170700-
NORTHEAST KANSAS

CITY           SKY/WX    TMP DP  RH WIND       PRES   REMARKS
CONCORDIA      CLOUDY    33  33 100 NW7       30.02R
6HR MIN TEMP:  32; 6HR MAX TEMP:  33;

EMPORIA        CLOUDY    34  33  96 W8        30.00R FOG
6HR MIN TEMP:  34; 6HR MAX TEMP:  38;

LAWRENCE       CLOUDY    35  35 100 W12       29.98R WCI  27
6HR MIN TEMP:  35; 6HR MAX TEMP:  42;

MANHATTAN      CLOUDY    34  33  96 W6        30.02R
6HR MIN TEMP:  34; 6HR MAX TEMP:  35; 6HR PCP: TRACE;

OLATHE IND     CLOUDY    35  34  96 W12       29.96R WCI  27
6HR MIN TEMP:  35; 6HR MAX TEMP:  42; 6HR PCP: TRACE;

OLATHE EXE     CLOUDY    35  35 100 W9        29.95R
6HR MIN TEMP:  35; 6HR MAX TEMP:  42; 6HR PCP: TRACE;

SALINA           N/A    N/A N/A N/A MISG        N/A
TOPEKA BILLARD CLOUDY    36  32  85 W8        29.98R
6HR MIN TEMP:  36; 6HR MAX TEMP:  42; 6HR PCP:  0.01;

TOPEKA FORBES  CLOUDY    36  33  89 NW10      29.98R WCI  28
6HR MIN TEMP:  36; 6HR MAX TEMP:  42;

$$



USA.gov is the U.S. government's official web portal to all federal, state and local government web resources and services.